Location: Unspecified
(42.3650°N, 71.1030°W)
Time: 15:34:36
(UTC+00:00)

Cosmos 158 Rocket - Pass Details

Date: 02 March 2024
Orbit: 696 x 790 km, 74.0° (Epoch: 18 April)

Event Time Altitude Azimuth Distance (km) Brightness Sun altitude
Rises 23:22:18 0° 343° (NNW) 3,086 7.4 -9.3°
Reaches altitude 10° 23:24:39 10° 348° (NNW) 2,166 6.5 -9.7°
Maximum altitude 23:29:27 58° 67° (ENE) 823 3.9 -10.6°
Drops below altitude 10° 23:34:17 10° 147° (SSE) 2,179 6.0 -11.5°
Sets 23:36:39 0° 151° (SSE) 3,106 6.8 -12.0°
